GEFSSGP_500_meanwind_348.txt.gz
Wind_Speed
2 2 4 4 4 4 4 4 4 4 4 4 4 4 4 4 4 4 4 4 3 4 3 3 3 4 4 4 4 5 5 5 5 5 5 5 6 6 5 4 4 4 4 3 3 3 3 4 4
3 3 3 3 3 3 4 5 5 4 4 4 4 4 4 4 4 4 4 4 4 4 4 4 4 4 4 4 4 5 6 6 6 6 6 6 7 7 7 6 6 5 5 4 4 4 4 4 5
3 3 3 3 3 4 5 5 5 5 5 5 5 5 4 4 5 5 4 4 4 4 4 4 5 5 5 4 4 5 5 5 5 5 5 5 7 8 8 7 7 7 7 6 5 5 5 5 6
4 4 4 4 4 5 6 6 6 6 6 6 6 6 5 5 5 6 5 5 5 5 5 5 5 5 5 5 5 5 5 6 5 5 6 6 6 7 8 7 7 8 8 7 7 7 7 7 7
5 5 5 5 5 6 6 6 6 6 7 7 6 6 6 6 6 6 6 6 6 5 5 5 5 5 5 5 5 6 6 6 6 5 6 6 7 8 8 8 9 9 9 8 8 8 8 7 8
6 6 6 6 6 7 8 7 8 8 7 8 7 7 7 7 7 7 7 7 6 6 6 6 6 6 6 5 5 5 6 6 5 5 6 7 7 8 8 8 9 10 9 9 9 8 8 8 9
7 8 7 7 7 7 8 8 8 9 8 8 9 9 8 8 8 8 8 7 7 7 7 6 6 6 6 7 6 5 6 6 6 6 6 7 8 8 8 8 9 9 9 9 9 9 9 9 9
8 8 8 8 8 8 8 8 8 9 9 9 9 10 9 9 9 9 8 8 8 8 8 7 7 7 7 7 7 7 7 7 6 6 7 7 8 8 8 8 9 9 9 8 9 9 9 10 10
9 9 9 9 9 9 9 9 9 9 9 9 9 10 10 10 10 9 9 9 8 9 9 9 8 8 8 8 8 8 7 7 7 8 8 8 8 8 9 9 9 9 9 9 9 9 10 10 10
10 10 10 10 9 9 9 9 9 9 9 10 10 10 10 10 10 10 9 9 9 9 9 9 9 9 9 9 9 9 8 8 8 9 9 9 9 9 9 9 9 9 9 10 10 10 10 10 11
10 9 9 10 9 10 10 10 10 10 10 10 10 11 11 11 11 11 10 10 10 10 10 10 10 9 9 9 9 10 9 9 9 9 10 9 9 9 10 10 10 10 10 10 11 11 11 11 12
10 10 10 10 10 10 10 10 10 10 10 10 10 11 11 11 11 11 11 11 11 11 11 11 11 10 10 10 10 10 10 9 9 9 10 10 10 10 10 10 10 10 11 11 11 12 12 12 12
11 10 11 10 10 10 10 11 10 11 10 10 10 10 10 11 11 11 11 11 12 12 11 11 11 11 11 11 11 11 11 11 10 10 10 10 10 10 11 11 11 11 11 11 12 12 12 11 11
11 11 11 11 10 10 10 10 10 10 10 10 9 9 10 10 10 10 10 11 12 12 12 12 12 12 11 11 10 11 11 11 11 11 11 11 10 10 11 11 11 11 11 11 11 11 10 11 11
12 12 12 11 11 11 10 10 10 10 10 10 10 9 9 9 10 10 10 10 11 11 11 12 12 11 11 11 10 10 11 11 11 12 12 12 11 11 11 11 11 12 11 10 10 10 10 10 11
11 12 12 12 12 11 11 11 10 11 11 10 10 9 9 9 10 10 10 10 10 11 12 12 12 11 11 11 11 11 12 12 12 13 13 12 12 12 12 12 11 11 10 9 9 10 10 10 11
11 11 11 11 12 12 12 12 12 12 11 11 10 10 10 10 10 11 10 11 11 11 11 12 12 12 13 13 13 13 13 13 13 13 13 13 13 13 12 12 11 11 10 10 10 10 10 10 11
11 11 11 12 12 12 13 12 12 12 12 12 12 11 11 11 11 11 11 11 11 11 11 12 12 12 13 14 14 14 13 13 13 13 13 13 13 13 13 12 12 11 11 11 11 11 12 12 12
10 11 11 11 12 12 13 13 12 13 13 13 12 12 12 11 12 12 12 12 12 12 12 13 13 13 13 14 14 14 14 14 14 14 14 14 13 13 13 13 13 12 12 12 12 12 13 13 13
11 11 11 12 12 12 12 12 13 14 14 14 13 13 13 12 12 13 13 13 13 13 13 13 14 14 14 14 15 15 15 16 15 15 15 15 15 14 14 14 13 14 14 14 14 14 14 14 14
11 11 11 12 12 12 12 12 13 14 14 14 13 13 13 12 12 12 13 13 14 14 14 14 15 14 14 15 15 15 15 16 16 17 16 16 16 15 14 14 14 14 15 15 15 15 15 15 14
10 11 11 12 12 13 13 13 14 14 14 14 13 13 13 12 12 13 13 14 14 14 15 15 16 16 16 16 16 17 17 17 17 18 18 18 17 16 16 16 16 16 16 16 16 16 16 16 15
10 10 11 12 12 13 13 14 14 15 15 14 14 13 13 13 13 13 14 14 15 15 15 16 16 17 17 18 18 18 18 18 18 18 19 18 18 18 17 17 17 17 17 17 17 17 17 16 16
10 10 11 11 12 14 14 15 14 15 15 14 14 14 14 14 14 15 15 15 16 16 16 16 16 17 17 17 18 18 18 18 18 18 18 18 18 18 18 17 17 17 17 18 18 18 18 17 17
10 10 10 11 12 14 14 15 15 15 15 15 15 15 16 15 15 16 16 16 17 18 17 18 17 17 17 17 18 19 19 19 19 19 18 19 18 18 18 18 18 18 17 18 18 18 18 18 18
10 10 10 12 13 13 14 14 14 14 14 15 15 16 16 17 17 17 17 18 18 18 19 19 19 19 18 18 18 19 19 19 19 20 20 19 19 19 19 19 20 20 19 19 19 19 19 19 19
10 10 10 12 13 13 14 14 13 13 14 15 16 17 17 18 18 18 18 18 18 19 19 19 19 19 19 19 19 19 19 20 20 20 20 20 20 20 20 20 20 20 20 20 20 20 20 20 20
10 10 10 11 13 13 14 14 14 14 14 15 16 17 18 18 18 18 18 19 19 19 19 19 19 19 19 19 20 20 20 20 21 21 20 20 20 20 21 21 21 21 20 20 20 21 21 21 21
11 10 11 13 14 14 15 15 15 14 14 14 16 16 17 17 18 18 19 19 19 19 19 20 20 20 20 20 21 21 21 21 21 22 22 21 21 21 21 21 21 21 21 21 21 22 22 22 22
12 11 12 13 15 16 16 16 15 15 15 15 16 16 16 17 18 19 19 20 20 19 20 20 21 21 21 22 22 22 22 22 22 22 22 21 21 22 22 22 22 22 21 21 22 22 23 23 23

GEFSSGP_500_meanwind_354.txt.gz
Wind_Speed
3 4 3 3 3 3 2 3 3 3 3 3 3 4 4 4 4 5 5 5 5 5 5 6 6 6 7 7 7 7 7 6 6 6 6 6 6 5 5 5 5 4 4 4 4 5 5 5 6
3 4 4 3 3 3 3 4 4 4 4 4 4 4 4 4 5 5 6 6 6 6 6 6 6 7 7 8 7 7 7 7 7 7 7 7 7 8 7 6 6 6 6 6 6 6 6 6 6
4 4 4 4 4 4 5 5 5 5 5 5 6 5 5 6 6 7 7 7 7 7 6 6 7 8 7 7 7 8 8 8 7 7 7 7 7 7 8 7 7 7 7 7 8 7 6 6 6
5 5 4 4 4 5 6 6 6 6 6 6 7 6 6 7 7 7 7 7 7 7 7 8 8 8 8 7 8 8 8 8 8 8 8 7 6 6 7 8 8 7 7 7 8 7 7 7 6
6 5 5 6 5 6 6 7 7 7 7 8 8 7 8 7 8 8 8 7 8 8 8 8 8 7 8 8 8 8 8 8 8 8 8 8 7 7 8 8 8 8 8 8 8 7 8 8 8
6 6 6 6 7 8 8 8 9 9 9 9 9 9 8 8 8 8 8 8 8 8 8 8 8 7 8 7 8 9 9 8 8 8 8 7 8 8 8 8 9 8 9 9 9 9 8 7 7
7 7 7 8 8 9 9 9 9 10 10 11 10 10 9 9 9 9 8 9 9 9 8 8 7 7 7 7 8 8 8 8 8 8 7 7 7 7 8 8 9 9 10 10 10 10 9 8 8
8 8 8 9 10 10 10 10 10 11 11 11 11 11 10 10 10 10 9 10 9 9 9 8 8 7 8 8 8 8 8 8 8 8 7 8 8 7 8 9 9 9 9 10 11 10 10 9 9
9 9 9 10 11 11 11 11 12 12 12 12 12 12 11 11 11 11 11 11 11 10 10 9 9 8 8 9 9 9 9 8 9 8 8 7 8 9 9 9 10 10 10 10 10 10 10 10 10
9 10 9 10 11 11 11 11 12 12 12 13 12 12 12 12 11 12 11 11 11 11 11 10 9 9 9 8 9 9 9 9 10 9 8 8 8 9 10 10 10 10 10 10 10 11 11 11 11
10 10 10 10 11 11 11 11 12 12 12 12 12 12 12 12 12 12 12 12 12 12 11 11 10 10 10 10 10 10 10 9 10 9 9 9 9 9 10 10 10 10 10 11 11 11 11 12 12
10 10 11 11 11 12 12 12 12 12 12 12 12 11 11 12 12 11 11 11 12 12 12 11 10 10 10 10 11 11 11 10 10 10 9 9 9 9 9 10 11 10 10 11 11 12 12 12 13
11 11 12 12 12 12 12 12 12 12 12 12 12 12 12 11 11 11 11 11 12 12 12 12 11 10 10 10 10 11 11 11 10 10 10 10 10 10 11 11 11 11 11 12 13 13 13 13 13
11 11 12 12 12 12 12 12 12 11 12 12 12 12 12 11 11 11 11 11 11 11 11 12 12 11 11 11 11 11 11 12 11 10 10 11 11 11 12 11 12 12 13 12 13 13 12 12 12
12 12 12 12 13 13 13 12 12 11 11 11 12 11 11 10 11 11 11 11 11 11 11 11 11 12 12 12 12 13 12 11 11 11 10 11 11 12 12 12 12 12 13 13 13 12 13 12 13
12 12 12 12 13 13 13 12 11 12 12 12 11 11 10 10 10 11 10 10 10 10 10 11 12 12 12 12 12 12 12 12 12 12 12 12 12 12 12 13 13 13 13 13 13 13 13 13 13
11 12 12 12 13 13 13 12 12 12 13 12 12 11 11 10 10 11 11 11 11 11 11 12 12 13 13 13 13 13 13 13 13 13 13 13 13 13 13 14 14 14 14 14 14 14 13 13 13
11 11 12 13 13 13 13 13 13 13 13 13 12 12 11 11 11 11 11 12 12 12 12 12 13 13 13 14 14 14 14 14 14 14 14 13 14 14 14 15 15 14 14 14 14 14 13 14 14
11 11 12 13 13 13 13 13 14 14 14 14 13 13 11 11 11 12 12 12 13 13 13 13 13 14 14 14 15 15 15 15 15 14 14 14 14 14 14 14 14 15 15 14 14 14 14 14 14
12 11 11 12 13 12 13 13 14 14 14 14 14 14 13 12 13 13 13 13 13 14 14 14 14 14 14 15 15 15 15 15 15 15 15 14 14 14 14 15 15 15 15 15 15 15 15 15 15
12 12 11 12 12 12 12 12 13 14 14 14 14 14 14 13 13 13 13 14 14 15 15 15 16 15 15 16 16 16 16 16 16 16 16 16 16 16 16 16 16 17 17 17 16 16 16 16 16
11 11 11 11 12 11 12 13 12 13 14 15 15 15 15 13 14 14 14 15 15 16 17 16 16 16 17 17 18 17 17 17 17 18 18 18 18 19 18 18 18 18 18 18 17 17 16 16 16
11 11 11 11 11 11 11 13 13 14 15 15 16 16 16 15 15 15 16 16 16 16 17 17 17 17 18 18 18 18 18 18 18 19 19 19 20 20 20 19 19 19 18 18 17 17 17 16 16
11 11 11 10 10 11 12 13 15 15 15 15 16 16 16 16 16 16 17 17 17 17 17 17 18 18 19 19 19 19 19 19 19 19 20 20 21 21 20 19 19 19 19 18 18 18 18 17 16
11 11 10 10 11 13 13 15 16 15 16 16 16 16 17 17 18 18 18 18 18 18 18 18 18 19 19 19 19 20 20 20 20 20 20 20 20 21 20 19 19 19 19 19 19 19 18 18 18
11 11 10 11 12 14 15 17 16 16 16 16 17 17 17 17 18 18 19 19 18 18 19 19 19 19 19 19 20 20 20 20 20 20 20 20 21 20 20 19 19 19 19 19 19 19 18 19 19
10 11 11 11 12 13 14 17 17 16 16 17 17 17 18 18 18 19 19 19 19 19 19 20 20 19 19 20 21 21 21 21 21 21 21 21 21 21 21 20 20 19 19 19 20 19 19 20 20
12 12 11 12 12 12 13 16 17 16 17 17 18 17 18 19 19 19 19 20 20 20 20 20 20 20 20 21 22 22 21 21 21 22 21 21 22 22 22 21 21 20 20 20 21 21 21 21 21
12 13 13 13 13 12 13 15 16 16 18 18 18 18 18 18 19 19 19 19 20 20 20 20 20 21 21 21 21 21 21 21 21 21 22 22 22 22 22 22 21 21 21 21 22 22 22 22 22
14 14 14 14 14 14 15 16 16 17 19 19 18 18 18 19 19 19 20 20 20 20 20 20 20 21 21 21 21 21 21 22 21 22 22 22 23 23 22 22 22 22 22 22 22 22 23 24 23

GEFSSGP_500_meanwind_360.txt.gz
Wind_Speed
4 4 4 4 4 4 3 3 3 2 2 2 2 2 2 2 2 2 3 3 3 3 3 3 4 4 5 5 6 6 6 6 6 6 5 5 5 5 5 5 6 6 5 5 5 5 6 6 6
4 4 4 4 4 4 4 3 3 3 3 2 2 2 2 2 2 2 3 3 4 4 4 4 4 5 6 6 7 7 7 7 7 7 7 6 7 7 7 7 7 7 7 6 6 6 7 7 7
5 4 4 4 5 5 4 3 3 3 3 3 3 3 3 3 3 3 3 3 4 4 5 5 5 5 6 6 7 7 8 7 7 7 8 7 8 9 9 9 8 7 7 7 7 6 7 7 7
5 5 5 5 5 5 4 3 3 3 4 4 4 4 4 4 4 4 4 4 4 5 6 6 6 6 6 7 7 8 8 8 8 8 8 8 9 10 9 8 8 8 8 7 7 7 7 7 7
6 6 6 6 5 5 4 4 3 4 4 4 5 5 5 5 5 5 5 5 5 6 6 7 7 7 7 8 8 8 8 8 8 8 7 8 8 8 7 7 8 8 9 8 8 9 8 7 7
7 5 5 5 5 5 5 5 5 5 5 5 6 6 6 6 6 6 6 6 6 6 7 8 9 9 8 8 8 7 7 8 7 7 7 7 7 7 6 6 7 8 8 9 9 9 9 7 7
7 7 7 6 5 5 6 6 6 6 7 6 6 7 7 7 7 7 7 7 7 7 8 9 9 8 8 7 8 7 7 7 7 6 6 7 6 6 6 6 7 8 8 8 9 9 9 9 9
7 7 7 6 6 6 7 6 7 7 8 7 7 7 7 7 7 8 8 8 8 8 9 9 9 8 7 7 7 7 7 7 6 6 6 6 6 6 6 7 7 7 8 8 8 8 8 9 9
8 8 7 6 7 7 7 7 8 8 8 8 8 8 8 9 9 9 9 8 9 9 8 8 8 8 7 7 6 7 6 6 6 6 7 6 5 6 7 7 7 7 8 8 7 7 8 8 9
9 8 7 7 7 7 7 8 8 8 8 8 9 8 8 9 9 9 9 8 9 8 8 7 7 7 7 7 7 7 7 6 6 7 6 6 6 6 7 8 8 8 8 7 7 7 8 8 9
9 8 8 8 8 8 8 8 8 8 8 8 8 8 8 8 8 8 9 8 8 8 8 7 7 6 7 6 7 6 6 6 6 6 6 6 7 7 8 8 8 8 8 8 8 8 8 8 9
10 9 8 8 9 8 8 8 9 9 9 9 9 8 8 8 8 8 8 8 8 8 8 7 7 7 6 6 7 6 6 7 7 7 7 7 8 8 8 8 8 8 8 9 8 9 9 9 10
10 9 9 9 9 9 9 9 9 8 9 9 8 8 8 8 8 8 9 8 8 8 8 7 8 7 6 6 7 7 7 7 8 8 8 8 9 9 9 9 8 8 9 9 9 9 10 10 10
10 10 10 9 10 10 10 9 9 8 8 8 7 7 7 7 7 8 8 8 8 7 7 7 7 7 7 7 8 7 8 8 9 9 9 9 9 10 10 10 10 9 9 9 10 10 10 11 10
11 11 11 11 10 10 10 10 10 9 8 8 8 8 8 7 7 7 7 7 7 7 7 7 7 7 8 8 8 8 9 10 9 9 9 9 9 10 10 10 10 10 10 11 10 10 10 11 11
11 11 11 11 11 10 11 10 10 10 9 9 9 8 8 7 8 7 7 7 7 7 7 7 7 8 8 9 9 9 10 10 10 10 9 10 10 11 11 11 11 11 11 11 11 11 12 11 11
12 12 11 11 12 12 11 11 10 11 11 10 10 9 9 8 7 7 8 8 8 8 8 8 8 9 9 10 10 10 11 11 10 10 10 11 12 12 12 12 11 11 12 12 12 12 12 12 12
11 11 10 10 11 12 12 12 11 11 11 11 11 10 10 10 9 8 8 9 9 9 9 9 10 10 11 11 11 12 12 13 12 12 11 12 12 12 12 12 12 12 12 12 12 12 12 12 12
9 10 10 10 11 11 11 11 11 11 10 11 11 11 10 9 9 9 9 9 10 10 10 10 10 10 11 11 12 13 13 13 13 13 13 12 12 13 13 13 13 12 12 12 13 13 13 13 13
10 10 10 11 11 11 11 11 11 11 10 10 11 11 10 11 10 10 10 10 10 10 10 10 10 11 11 12 12 13 14 14 14 14 14 14 13 13 14 13 13 13 13 13 13 13 14 14 14
10 10 10 11 11 12 12 12 11 11 10 10 11 11 11 11 11 11 11 10 10 10 10 11 11 12 12 12 13 14 14 15 15 15 15 16 15 15 15 15 15 15 15 14 14 14 14 14 14
11 11 11 11 11 11 12 12 11 10 10 10 10 10 11 11 11 12 12 11 10 11 11 12 12 13 12 13 13 14 14 15 16 16 16 16 16 16 16 15 15 16 16 15 15 15 15 15 15
11 11 11 11 11 11 11 11 10 10 10 10 9 10 10 11 12 12 13 12 11 11 12 12 12 13 13 14 14 14 15 15 15 16 16 16 16 17 17 17 16 16 17 17 17 16 16 16 16
12 11 11 11 11 11 11 11 10 9 9 10 10 10 11 12 12 12 13 12 12 12 12 12 12 13 14 15 15 15 15 15 16 16 16 16 16 17 17 17 18 18 18 17 17 17 17 17 17
12 11 12 12 12 12 11 10 9 9 9 9 10 10 11 12 12 12 13 13 13 13 13 13 13 14 15 15 15 15 15 15 16 16 17 17 17 17 18 18 18 18 18 18 17 17 17 17 18
12 12 12 13 13 12 12 11 9 9 9 9 9 10 10 11 12 12 13 13 13 14 14 14 15 15 16 16 16 16 16 15 16 16 17 17 18 18 18 18 18 17 18 18 18 18 18 17 18
12 12 13 14 14 13 13 12 11 10 10 10 10 10 10 11 12 13 13 14 14 15 15 16 16 16 16 16 16 16 16 16 17 17 17 18 18 18 18 18 18 18 18 18 18 18 18 18 18
12 13 14 14 15 14 14 14 13 12 11 11 11 11 11 12 12 13 14 14 15 15 16 16 16 16 16 16 17 17 16 17 17 18 18 18 19 19 19 19 19 19 19 19 19 19 18 18 18
13 13 14 14 15 15 15 14 14 14 13 12 12 12 13 13 14 14 14 15 15 16 16 17 17 17 17 17 17 16 16 17 18 19 19 19 20 20 20 20 21 20 20 20 20 20 19 19 19
14 15 15 15 15 16 17 15 14 14 14 14 14 14 14 14 15 15 15 16 16 17 17 17 17 18 18 18 18 18 18 18 19 20 20 21 21 21 21 21 21 21 21 22 21 21 21 21 21

GEFSSGP_500_meanwind_366.txt.gz
Wind_Speed
2 2 2 2 2 2 2 2 3 2 2 2 2 2 1 1 2 2 2 2 2 3 3 3 3 4 4 5 5 5 5 5 5 6 5 5 5 5 4 4 3 2 2 2 2 3 4 4 5
3 3 3 3 3 3 3 3 3 3 3 2 2 2 2 1 1 2 2 3 3 4 4 4 4 4 5 5 6 6 6 6 6 6 6 6 6 6 5 4 4 4 3 4 4 5 5 5 5
4 4 3 3 3 4 4 4 4 4 4 3 3 2 2 2 2 3 3 4 4 5 5 5 5 5 5 6 6 6 6 6 6 6 6 6 6 5 5 6 6 6 5 5 5 6 6 6 6
5 5 5 4 4 5 5 5 5 4 4 3 3 3 3 3 3 4 4 5 5 6 6 5 6 6 6 6 6 6 7 7 7 6 7 7 7 7 7 6 7 7 7 8 7 7 7 7 8
6 6 6 5 5 5 6 6 5 5 5 4 4 4 4 4 5 5 6 6 7 7 7 7 7 7 7 7 6 6 6 6 6 6 7 7 7 7 9 9 7 7 7 7 7 8 8 8 8
6 6 6 5 5 6 6 6 6 5 5 5 5 5 5 5 6 6 6 7 8 8 8 8 8 8 8 7 7 7 7 7 7 6 6 6 7 7 8 7 5 5 6 6 6 7 8 7 8
7 6 6 6 6 6 6 6 6 6 6 6 6 6 7 7 7 7 7 8 8 9 9 9 9 9 8 8 8 7 7 7 6 6 6 6 6 6 6 5 4 5 5 6 6 7 6 7 7
7 7 6 6 7 7 7 7 7 7 7 7 7 8 7 8 8 8 8 9 9 9 9 9 9 9 9 8 8 8 7 6 6 5 5 6 6 6 6 5 5 5 5 5 6 6 7 6 7
8 8 7 7 7 7 8 8 7 8 7 8 8 9 8 8 8 9 9 9 9 9 9 9 9 9 8 8 8 7 7 6 6 5 5 6 6 6 5 5 5 5 6 6 6 6 7 6 7
8 8 8 8 8 8 8 8 8 8 8 8 9 8 8 9 9 9 9 9 9 9 8 8 8 8 8 8 8 7 7 7 7 6 6 6 6 6 6 5 6 6 6 6 6 7 7 7 7
9 9 9 9 9 9 9 9 8 8 9 8 8 8 8 9 9 9 9 9 9 9 8 8 8 7 7 7 8 8 8 8 8 8 8 8 7 7 7 7 7 7 7 7 7 7 7 8 8
10 10 9 9 10 10 10 10 9 9 9 9 9 8 9 9 9 8 8 8 8 8 9 9 9 7 7 7 8 8 8 8 9 9 9 9 8 9 8 8 9 8 8 7 7 8 8 8 8
11 11 11 10 10 11 11 11 10 10 10 10 9 8 9 9 9 8 8 8 8 8 8 8 8 8 8 7 7 8 8 8 9 9 9 9 9 9 9 9 9 9 9 8 8 8 8 8 8
11 12 12 12 12 12 12 12 11 10 10 10 9 9 8 9 8 8 8 8 8 9 8 8 7 8 7 7 8 8 8 9 8 8 8 9 9 10 10 9 9 9 9 9 9 9 9 9 9
11 11 12 12 13 13 13 12 11 11 11 10 10 10 10 9 9 9 9 8 8 8 8 7 7 7 8 8 8 9 9 9 9 9 9 10 10 10 10 10 9 9 9 9 10 9 10 10 10
12 12 12 12 12 12 13 12 12 12 11 11 11 10 10 10 9 9 9 9 8 8 8 8 8 8 9 9 9 9 9 9 10 10 10 10 11 11 11 11 10 10 10 10 11 11 11 10 10
12 12 12 12 13 13 13 13 12 12 12 12 11 11 10 10 9 9 9 9 9 9 8 8 9 9 9 10 11 11 10 10 10 11 11 11 11 11 10 11 11 11 11 11 11 11 11 11 11
12 13 13 13 13 13 13 13 13 13 13 13 12 11 11 10 9 10 10 10 9 9 9 9 9 9 10 10 10 10 10 10 11 11 11 10 10 10 10 11 11 12 12 12 12 12 12 12 12
12 13 13 13 13 13 13 13 12 13 13 13 13 12 11 11 10 11 10 10 10 10 10 10 9 9 10 10 10 11 11 11 12 12 12 11 11 11 11 12 12 12 12 12 13 13 13 13 12
12 12 12 12 12 13 13 13 13 13 13 13 13 13 12 12 12 11 11 11 11 11 11 10 9 10 10 11 11 11 12 12 13 13 13 13 13 12 12 12 13 13 13 13 13 13 14 13 13
13 12 12 12 13 13 14 14 13 13 13 13 14 14 13 12 12 12 12 12 11 11 11 10 10 10 11 11 12 12 12 13 13 13 13 13 14 14 13 13 14 13 13 13 13 13 13 13 14
13 13 13 13 13 13 14 14 13 13 13 13 14 14 13 13 13 13 12 12 12 12 12 12 11 12 12 12 12 12 13 13 14 14 14 14 14 14 14 14 15 15 14 14 14 14 14 15 15
13 13 13 13 14 14 14 14 12 12 13 13 13 13 13 13 13 13 13 12 12 13 13 13 13 13 13 13 13 13 13 13 14 14 14 14 15 15 15 15 16 16 15 15 15 16 16 16 16
14 14 14 14 15 15 14 15 13 13 13 13 12 12 13 13 13 13 14 13 13 13 14 14 14 14 14 13 13 13 13 13 14 14 14 14 15 16 16 15 15 16 16 16 16 16 16 16 17
14 14 15 15 15 15 15 15 14 13 13 13 13 12 13 13 13 13 14 14 14 14 15 15 15 15 15 14 14 14 14 14 14 14 14 15 16 16 16 16 15 15 16 16 16 17 17 18 18
14 15 15 15 15 15 15 14 13 13 12 12 13 12 13 13 13 13 14 15 15 14 14 15 15 16 15 15 15 15 15 14 14 15 15 15 16 16 16 16 15 15 16 17 17 17 18 18 18
15 15 16 16 16 15 15 13 13 13 13 13 13 13 13 13 14 14 14 14 15 16 16 15 16 16 17 16 16 16 16 16 16 16 16 16 16 16 16 17 17 17 17 18 18 18 18 19 19
16 16 16 17 17 16 15 13 13 14 14 14 14 14 14 14 14 14 14 15 15 16 17 17 17 16 16 17 17 17 17 16 16 17 17 17 17 17 17 18 18 18 18 18 18 19 19 19 19
16 17 17 17 17 16 15 14 14 15 15 16 16 16 16 15 15 14 15 16 16 16 17 17 17 17 18 18 18 18 18 17 17 17 18 18 18 18 19 19 19 19 19 19 20 20 21 21 21
17 18 18 18 18 18 18 15 15 15 16 16 17 17 17 16 16 16 16 16 16 17 18 18 17 18 19 19 19 19 19 19 19 19 19 19 19 19 19 20 20 21 20 20 21 21 22 21 21

GEFSSGP_500_meanwind_372.txt.gz
Wind_Speed
4 4 4 4 3 4 4 4 4 4 4 4 4 4 4 3 3 2 2 2 1 2 2 2 2 2 3 3 4 4 4 4 3 2 2 1 0 1 1 2 4 5 7 7 7 8 8 8 10
4 3 3 3 3 3 4 4 5 5 4 4 3 4 3 3 2 3 3 3 2 2 2 3 2 3 3 4 4 4 5 4 3 3 3 3 2 1 1 2 3 5 6 7 8 8 8 8 9
4 3 3 3 4 4 4 5 5 5 5 4 3 3 3 3 3 3 3 3 3 3 3 3 4 4 4 4 4 4 5 5 4 4 4 4 3 3 2 3 3 5 6 7 8 9 9 9 9
5 4 4 4 4 5 5 4 5 6 6 5 4 4 4 3 3 3 3 3 4 4 4 5 5 5 5 5 5 5 5 6 6 5 5 5 5 4 4 5 5 6 7 8 9 9 10 10 10
6 5 5 5 5 5 5 5 5 5 5 5 5 5 5 4 4 4 4 4 4 5 5 6 6 6 6 6 6 6 6 6 6 5 6 6 6 5 6 6 6 6 8 9 10 11 11 11 12
6 6 6 6 6 6 6 6 6 6 5 6 6 6 5 5 5 5 5 5 5 6 6 7 7 7 7 7 7 7 6 6 6 5 6 6 6 6 6 7 8 9 9 10 10 10 10 10 11
6 6 6 6 6 6 7 7 6 6 6 6 6 6 6 6 6 6 6 6 6 7 7 7 7 7 7 7 7 7 7 6 6 6 6 6 6 6 6 7 7 6 7 9 9 9 9 9 10
6 6 6 6 6 6 7 7 7 6 6 6 6 6 7 7 7 7 7 7 7 7 7 7 7 7 7 8 8 8 7 7 7 7 6 6 7 6 6 5 5 3 4 6 7 8 7 9 9
7 7 6 6 6 7 7 7 7 7 6 6 6 7 7 7 8 8 8 8 7 7 7 6 7 7 7 8 8 8 8 8 8 8 8 8 8 7 6 5 4 3 3 5 6 7 7 8 8
7 7 7 7 7 7 7 7 8 8 7 7 7 7 7 8 8 9 9 8 8 8 8 7 7 7 7 8 8 9 8 8 8 8 8 8 8 8 7 6 5 4 5 5 6 6 7 7 7
7 7 7 7 8 8 8 9 9 8 8 8 8 7 7 8 9 9 9 9 9 9 8 8 8 8 8 9 9 9 9 9 9 9 9 9 9 8 7 7 6 6 7 6 6 6 6 7 7
7 8 8 8 8 9 9 9 9 9 9 8 8 8 9 9 9 9 9 9 9 9 9 9 9 9 9 10 10 10 10 10 10 10 10 10 9 9 8 8 8 8 7 7 7 7 7 7 8
9 9 9 9 9 9 10 10 10 10 10 9 9 8 9 9 9 9 9 8 8 9 9 9 9 10 10 11 11 11 11 11 11 11 10 10 9 10 9 9 9 9 8 9 9 9 8 8 9
10 9 9 10 10 10 10 10 11 11 10 10 10 9 9 10 9 9 10 10 10 10 10 9 9 10 11 11 11 11 11 11 11 10 10 10 10 10 9 9 9 9 9 9 9 9 10 10 10
10 10 9 10 10 10 11 11 12 12 12 11 11 11 11 10 10 10 10 11 11 11 11 11 10 11 11 11 11 11 11 11 11 11 10 10 10 10 10 9 9 9 9 9 9 9 9 10 10
10 11 10 10 11 11 12 12 12 12 12 12 12 12 12 11 11 11 11 11 11 11 11 12 12 11 11 11 10 10 10 11 11 11 10 9 9 9 9 10 10 10 10 10 10 11 11 11 11
11 11 11 11 11 12 12 12 12 12 12 12 12 12 12 11 11 11 11 11 11 11 11 11 11 12 11 11 10 9 10 11 11 11 11 10 10 9 9 10 11 11 10 11 11 11 12 12 12
11 11 12 12 12 12 12 12 11 11 11 12 12 12 12 12 12 12 11 11 11 11 12 12 11 11 12 11 10 10 10 10 11 11 11 11 10 10 10 10 11 11 11 12 12 12 12 12 12
12 12 12 13 13 13 13 12 11 11 12 12 12 12 13 12 12 12 12 11 11 12 12 12 12 12 11 11 10 11 11 11 11 11 11 11 11 11 11 11 11 12 12 12 12 13 13 13 12
12 12 12 13 14 13 13 12 12 13 13 12 12 13 13 13 13 13 13 13 12 12 12 12 12 12 11 11 11 11 11 11 11 11 12 12 12 12 11 12 12 12 13 13 13 13 13 13 14
12 13 13 13 13 13 13 12 13 13 13 12 12 13 14 14 14 14 14 14 13 13 12 12 12 12 12 11 12 11 11 11 11 11 12 12 12 13 12 12 13 13 13 13 13 12 13 13 14
13 13 13 14 13 14 13 13 13 14 14 13 13 14 14 15 15 15 14 14 13 13 13 13 13 13 13 12 12 12 12 12 12 11 12 12 13 13 13 13 13 13 13 13 14 13 14 14 15
14 13 14 14 14 14 14 14 14 14 14 14 14 14 14 15 15 15 14 14 13 13 13 13 13 13 13 13 13 13 12 12 12 12 12 12 13 13 14 14 14 13 13 14 14 14 15 15 16
14 14 14 14 14 14 14 14 14 14 14 15 15 15 14 14 14 15 14 14 14 14 13 13 14 13 13 13 13 13 13 13 13 13 13 13 14 14 15 14 14 14 14 15 15 15 16 16 16
14 14 14 14 14 15 15 15 14 15 14 14 15 15 15 15 15 15 15 15 14 14 14 14 13 13 14 14 14 14 14 14 14 14 14 14 14 15 15 15 14 14 15 15 16 16 17 17 17
15 15 15 15 15 16 16 16 15 15 15 14 15 15 15 15 15 16 16 16 16 15 15 15 15 15 15 15 15 15 15 15 15 15 15 14 15 15 15 15 15 16 16 16 16 17 17 18 18
15 15 16 16 16 16 16 15 15 16 16 15 15 15 15 15 15 16 16 16 16 16 17 16 16 16 16 16 16 16 16 16 16 16 16 16 16 15 16 16 16 16 17 17 17 18 18 19 19
16 16 16 17 17 17 17 16 16 16 16 16 16 15 15 16 16 16 17 17 17 17 17 17 17 17 17 17 17 17 17 17 17 18 17 17 17 16 16 17 18 18 18 19 19 20 20 20 20
17 17 17 18 19 19 19 18 17 17 17 17 18 18 17 17 17 17 17 18 18 18 18 19 19 18 18 18 18 18 18 18 18 18 18 18 18 18 18 18 18 19 19 20 20 21 21 21 22
18 19 19 20 20 20 20 19 19 18 19 19 19 19 19 19 19 18 18 19 20 20 20 19 20 20 20 20 19 19 19 19 19 19 19 19 19 20 20 20 20 21 21 21 22 22 22 23 23